Location: Ridgway Nature & Science Center
(38.1460°N, 107.7553°W)
Time: 00:36:42
(UTC-06:00)

N. Korean satellite - Visible Passes

Search period start: 26 October 2021 00:00
Search period end: 05 November 2021 00:00
Orbit: 450 x 495 km, 97.3° (Epoch: 25 October)

Date Brightness Start Highest point End Pass type
(mag) Time Alt. Az. Time Alt. Az. Time Alt. Az.
26 Oct 6.5 06:30:20 10° N 06:33:59 81° WNW 06:37:33 10° SSW visible
27 Oct 8.1 06:02:25 10° NNE 06:05:50 39° E 06:09:12 10° SSE visible
28 Oct 9.6 05:35:10 10° NE 05:37:34 17° E 05:39:58 10° SE visible
29 Oct 6.5 06:39:12 10° N 06:42:46 60° WNW 06:46:16 10° SSW visible
29 Oct 10.2 18:46:38 10° WSW 18:48:15 13° W 18:49:53 10° WNW visible
30 Oct 7.4 06:11:07 10° NNE 06:14:38 52° E 06:18:06 10° S visible
31 Oct 9.2 05:43:34 10° NE 05:46:24 21° E 05:49:11 10° SSE visible
01 Nov 6.8 06:48:01 10° N 06:51:28 44° WNW 06:54:50 10° SSW visible
02 Nov 6.8 06:19:46 10° NNE 06:23:21 71° E 06:26:52 10° S visible
03 Nov 8.7 05:52:00 10° NE 05:55:07 28° E 05:58:10 10° SSE visible
04 Nov 10.0 05:25:17 10° ENE 05:26:45 12° E 05:28:12 10° ESE visible
04 Nov 7.2 06:56:50 10° N 07:00:05 33° WNW 07:03:16 10° SW visible
